Regional Weather Roundup
Issued by NWS

Home | Current Version | Previous Version | Text Only | Print | Product List | Glossary Off
Versions: 1 2 3 4 5 6 7 8 9 10 11 12 13 14 15 16 17 18 19 20 21 22 23 24 25 26 27 28 29 30 31 32 33 34 35 36 37 38 39 40 41 42 43 44 45 46 47 48 49 50

000
ASUS43 KMPX 021310
RWRMN
WEATHER ROUNDUP FOR MINNESOTA
NATIONAL WEATHER SERVICE TWIN CITIES/CHANHASSEN MN
700 AM CST MON MAR 02 2015


NOTE: "FAIR" INDICATES FEW OR NO CLOUDS BELOW 12,000 FEET WITH NO
SIGNIFICANT WEATHER AND/OR OBSTRUCTIONS TO VISIBILITY. N/A MEANS
CURRENT SKY AND/OR WEATHER CONDITIONS ARE NOT AVAILABLE.

MNZ060>063-068>070-021400-
   Twin Cities Metro

CITY           SKY/WX    TMP DP  RH WIND       PRES   REMARKS
TWIN CITIES    PTCLDY     9   5  84 SW6       30.47R WCI  -1
ST PAUL        PTCLDY     9   6  88 E3        30.48S
CRYSTAL        PTCLDY     6   3  87 CALM      30.45R
BLAINE         MOCLDY     5   1  85 CALM      30.44S
LAKEVILLE      PTCLDY     5   1  85 SW5       30.46S WCI  -4
EDEN PRAIRIE   PTCLDY     6   2  83 SW5       30.45S WCI  -3
SOUTH ST PAUL  PTCLDY     9   6  85 CALM      30.47S
LAKE ELMO      FAIR       1   0  92 SW3       30.46R
$$
MNZ001>005-007-008-013>017-022>024-027-028-021400-
   Northwest Minnesota

CITY           SKY/WX    TMP DP  RH WIND       PRES   REMARKS
BEMIDJI        MOCLDY    -5  -9  86 CALM      30.31F
HALLOCK        PTCLDY    -8 -11  84 SE8       30.30F WCI -23
ROSEAU         PTCLDY    -6  -9  84 S6        30.29F WCI -18
WARROAD        PTCLDY    -4  -8  84 S5        30.29F WCI -15
THIEF RVR FALL PTCLDY    -2  -6  84 CALM      30.31F
CROOKSTON      MOCLDY    -2  -8  78 S9        30.34F WCI -18
FOSSTON        PTCLDY    -6  -9  84 S6        30.32F FOG     WCI -18
DETROIT LAKES  CLOUDY     0  -4  85 S5        30.34F WCI -10
MOORHEAD       MOCLDY     1   0  92 S7        30.37S WCI -11
PARK RAPIDS    PTCLDY    -4  -9  79 CALM      30.32F
MAHNOMEN       FAIR      -1  -5  85 S5        30.33S WCI -11
$$
MNZ006-009>011-018-025>026-021400-
   North Central Minnesota

CITY           SKY/WX    TMP DP  RH WIND       PRES   REMARKS
BAUDETTE       PTCLDY    -9 -12  87 S5        30.29F WCI -20
FLAG ISLAND    PTCLDY    -9 -13  84 S5        30.28F WCI -21
INTL FALLS     MOCLDY    -9 -13  83 SW3       30.32R
WASKISH        PTCLDY    -8  -9  92 CALM      30.32S
BIG FORK       PTCLDY    -9 -17  70 CALM      30.32S
LONGVILLE      MOCLDY   -11 -15  84 CALM      30.34F
GRAND RAPIDS   MOCLDY    -6 -11  77 SW3       30.32S
CRANE LAKE     PTCLDY   -11 -15  84 CALM      30.35S
ORR            MOCLDY    -2  -6  84 CALM      30.29R
COOK           PTCLDY    -9 -15  77 CALM      30.32S
WALKER         FAIR      -3  -6  85 CALM      30.33F
$$
MNZ012-019>021-037-021400-
   Northeast Minnesota

CITY           SKY/WX    TMP DP  RH WIND       PRES   REMARKS
DULUTH         PTCLDY     2  -3  80 W9        30.33R WCI -13
ELY            PTCLDY    -2  -6  84 SW1       30.31S
HIBBING        MOCLDY    -9 -15  75 CALM      30.33R
EVELETH        FLURRIES  -8 -13  77 CALM      30.33S
DULUTH HARBOR    N/A      3   0  85 CALM      30.42R
SILVER BAY     PTCLDY     7   1  78 W3        30.32S
GRAND MARAIS     N/A     14   7  73 W6G20     30.34R WCI   5
G MARAIS ARPRT CLEAR      3  -2  78 NW10G16   30.22F WCI -12
$$
MNZ029>031-032-039>041-046>048-054>057-064-021400-
   West Central Minnesota

CITY           SKY/WX    TMP DP  RH WIND       PRES   REMARKS
FERGUS FALLS   PTCLDY     1  -4  78 SE6       30.43S WCI -10
MORRIS         CLEAR      0  -4  85 SE6       30.38F WCI -12
ALEXANDRIA     MOCLDY     2  -1  88 SW8       30.38R WCI -12
ELBOW LAKE     FAIR       3  -1  83 SE7       30.38F WCI -10
WADENA         MOCLDY    -6  -9  84 CALM      30.35S
GLENWOOD       MOCLDY     1  -2  85 SW6       30.40  WCI -10
APPLETON       PTCLDY     0  -4  85 CALM      30.42F
BENSON         PTCLDY     3   0  85 CALM      30.41F
ORTONVILLE     PTCLDY     3  -2  78 SW5       30.40F WCI  -6
MADISON        PTCLDY     3  -2  78 SW5       30.43F WCI  -6
WILLMAR        FAIR       1  -2  85 CALM      30.43F
$$
MNZ033>034-036-042>043-049>051-058-059-021400-
   Central Minnesota

CITY           SKY/WX    TMP DP  RH WIND       PRES   REMARKS
ST CLOUD       PTCLDY     0  -4  83 S5        30.43R WCI -10
SAUK CENTRE    FAIR       1  -2  88 SW3       30.41R
PAYNESVILLE    MOCLDY    -4  -6  90 CALM      30.43R
AITKIN         MOCLDY    -4  -9  77 CALM      30.36
PINE RIVER     MOCLDY    -9 -15  77 CALM      30.37F
BRAINERD       PTCLDY    -3  -6  87 CALM      30.37S
STAPLES        PTCLDY    -6  -9  84 S3        30.36S
LONG PRAIRIE   FAIR       0  -4  85 S6        30.39S WCI -12
LITTLE FALLS   PTCLDY    -2  -6  84 CALM      30.41R
LITCHFIELD     PTCLDY     5   3  92 CALM      30.44R
BUFFALO        PTCLDY     5   1  85 CALM      30.45F
MAPLE LAKE     PTCLDY     7   4  91 CALM      30.44S
$$
MNZ037-044-045-052-053-021400-
   East Central Minnesota

CITY           SKY/WX    TMP DP  RH WIND       PRES   REMARKS
PRINCETON      MOCLDY     0  -6  78 CALM      30.42S
MORA           MOCLDY    -6  -9  84 CALM      30.42F
CAMBRIDGE      MOCLDY    -2  -9  71 CALM      30.42R
RUSH CITY      MOCLDY     0  -3  85 CALM      30.42F
MOOSE LAKE     MOCLDY    -6  -9  84 CALM      30.37S
HINCKLEY       FAIR      -6  -8  92 CALM      30.40F
CLOQUET        MOCLDY     1   0  92 W5        30.35R WCI  -8
MCGREGOR       MOCLDY     3   1  92 CALM      30.38R
$$
MNZ071>073-080-081-089-090-097-098-021400-
   Southwest Minnesota

CITY           SKY/WX    TMP DP  RH WIND       PRES   REMARKS
MONTEVIDEO     FAIR       3   0  85 W6        30.44F WCI  -8
GRANITE FALLS  PTCLDY     0  -3  86 S3        30.45F
CANBY          PTCLDY     5   1  83 SW5       30.43F WCI  -4
MARSHALL       PTCLDY     0  -6  78 SW3       30.43F
REDWOOD FALLS  PTCLDY     4   0  83 CALM      30.44F
OLIVIA         PTCLDY     3   1  92 CALM      30.43F
PIPESTONE      CLEAR      3   1  92 CALM      30.39F
WINDOM         PTCLDY    -2  -6  84 CALM      30.43F
WORTHINGTON    PTCLDY     9   1  72 S5        30.44F WCI   0
JACKSON          N/A      3  -2  78 S3        30.44S HAZE
TRACY          PTCLDY     5   1  83 SW7       30.43F WCI  -7
SLAYTON        PTCLDY     2  -4  75 CALM      30.41F
$$
MNZ065>067-074>077-082>085-091>093-021400-
   South Central Minnesota

CITY           SKY/WX    TMP DP  RH WIND       PRES   REMARKS
MANKATO        PTCLDY     7   1  78 SW5       30.46S WCI  -2
NEW ULM        PTCLDY     3   0  85 SW5       30.46F WCI  -6
ST JAMES       PTCLDY     3   1  92 SW5       30.48S WCI  -6
FAIRMONT       PTCLDY     1  -2  85 SW5       30.46S WCI  -8
GLENCOE        PTCLDY     5   2  88 CALM      30.44F
FARIBAULT      PTCLDY     0  -6  78 CALM      30.46S
OWATONNA       PTCLDY     0  -4  85 CALM      30.45F
WASECA         PTCLDY    -4  -9  77 CALM      30.48S
ALBERT LEA       N/A      1  -2  85 CALM      30.46R
$$
MNZ078>079-086>088-094>096-021400-
   Southeast Minnesota

CITY           SKY/WX    TMP DP  RH WIND       PRES   REMARKS
ROCHESTER      PTCLDY     5   2  87 W8        30.44R WCI  -8
RED WING       PTCLDY     1  -2  85 CALM      30.47R
STANTON        PTCLDY     3  -1  81 S3        30.45S
DODGE CENTER   PTCLDY     1   0  92 CALM      30.44R
WINONA         PTCLDY     9   3  78 CALM      30.49S
AUSTIN         FAIR       3   1  92 CALM      30.46R
PRESTON        MOCLDY     6   3  88 NW5       30.45R WCI  -3
$$
ABBREVIATIONS USED IN REMARKS
   TC - TEMPERATURES IN CELSIUS
  WCI - WIND CHILL INDEX
   HX - HEAT INDEX
  VSB - VISIBILITY
$$



USA.gov is the U.S. government's official web portal to all federal, state and local government web resources and services.